Dewpoint
12 12 11 10 9 8 8 7 7 9 9 9 8 8 8 8 8 8 8 9 9 8 8 9 9 9 9 9 7 4 2 -2 -4 -4 -4 -4 -4 -5
11 12 12 11 10 9 9 9 8 9 9 9 8 8 7 7 8 8 8 9 8 8 8 9 9 9 9 8 7 4 0 -3 -3 -3 -3 -3 -4 -4
12 12 11 11 10 9 9 9 8 9 8 7 7 8 7 8 8 9 8 8 8 7 8 9 9 9 8 8 6 4 -1 -3 -3 -3 -3 -3 -1 0
11 11 11 11 10 10 10 9 9 8 7 8 9 8 8 9 8 7 7 7 7 8 8 9 9 8 7 7 5 3 -1 -3 -2 -2 -2 -2 2 2
10 10 9 10 10 10 9 9 8 7 8 9 8 8 7 8 7 7 6 7 7 7 8 8 7 7 6 6 5 1 -2 -2 -2 -1 -2 0 2 3
10 10 10 9 9 9 9 9 9 9 8 8 8 7 7 6 7 7 7 7 7 8 8 8 7 6 5 5 4 -0 -1 -1 -1 -2 -2 2 3 2
9 9 9 9 9 9 8 8 8 9 8 8 8 8 8 8 7 7 8 8 8 8 8 6 6 5 5 4 3 1 -1 -1 -1 -2 -2 2 3 3
9 8 9 9 9 9 9 9 9 9 9 9 9 9 9 8 8 7 7 7 7 6 6 5 4 4 4 4 2 0 -1 -1 -1 -2 -1 3 4 3
9 9 9 8 8 8 8 8 8 7 8 8 6 5 7 7 6 6 6 6 5 5 4 4 3 3 3 2 1 0 -0 -1 -1 -2 0 4 4 3
8 7 7 6 6 6 5 6 6 6 5 6 6 5 6 5 4 5 5 4 4 3 3 3 3 3 2 2 1 0 0 -1 -1 -1 1 4 3 3
6 6 6 6 6 6 6 5 5 6 6 6 6 5 6 5 4 4 4 4 4 3 3 3 3 3 2 2 0 1 0 -1 -1 -2 -0 3 3 3
1 1 1 2 4 4 4 4 4 4 4 4 4 5 5 6 4 4 4 4 4 3 3 3 2 2 2 1 1 1 -0 -1 -1 -3 -0 3 3 3
-3 -2 -2 -2 -1 -0 0 2 2 2 2 3 4 4 4 4 5 5 4 4 4 3 3 3 3 2 1 0 1 1 0 -1 -5 -6 -2 3 3 3
-4 -4 -3 -3 -3 -3 -2 -1 -0 1 1 1 2 3 3 3 3 3 3 3 3 3 3 2 2 1 1 0 -0 -0 -1 -6 -8 -3 -4 2 3 3
-7 -6 -6 -5 -4 -4 -3 -2 -1 -0 0 1 0 1 2 2 2 2 2 2 2 1 1 1 1 0 -0 -1 -0 -0 -2 -11 -10 -4 -9 1 2 3
-12 -13 -12 -11 -11 -10 -7 -6 -4 -1 -1 -0 -0 0 1 1 1 1 0 0 0 0 0 -0 -0 -0 -0 -0 -0 -0 -1 -7 -18 -9 -15 0 1 2
-13 -14 -14 -13 -13 -13 -12 -11 -10 -8 -3 -2 -1 -1 -1 -1 -1 -0 -1 -0 -1 -0 -0 -0 -1 -1 -1 -1 -1 -1 -2 -2 -13 -18 -17 -5 1 1
-12 -13 -13 -12 -12 -11 -11 -11 -10 -7 -5 -3 -3 -3 -2 -2 -1 -1 -1 -1 -1 -1 -1 -1 -1 -2 -2 -3 -2 -2 -3 -4 -12 -18 -17 -16 -1 0
-12 -14 -15 -14 -13 -11 -11 -11 -11 -8 -6 -4 -3 -3 -3 -3 -2 -2 -2 -3 -2 -2 -2 -2 -2 -3 -3 -3 -3 -3 -3 -5 -15 -16 -16 -17 -15 -2
-13 -15 -16 -15 -12 -11 -11 -10 -10 -9 -7 -5 -5 -4 -3 -4 -3 -3 -3 -3 -3 -3 -3 -3 -3 -3 -3 -3 -4 -4 -5 -8 -8 -16 -15 -14 -16 -16
-13 -14 -14 -14 -12 -12 -9 -8 -8 -7 -7 -6 -5 -4 -5 -4 -4 -4 -4 -3 -4 -4 -4 -3 -3 -4 -4 -5 -5 -6 -7 -8 -8 -15 -15 -15 -14 -15
-12 -12 -12 -12 -11 -10 -9 -8 -7 -6 -7 -6 -6 -5 -4 -4 -4 -5 -4 -4 -4 -5 -4 -4 -4 -4 -5 -6 -6 -7 -10 -9 -12 -13 -12 -14 -14 -15
-11 -10 -12 -12 -11 -12 -11 -9 -7 -7 -7 -6 -6 -6 -5 -5 -5 -5 -5 -5 -5 -5 -5 -5 -5 -5 -6 -6 -7 -8 -12 -11 -13 -13 -12 -12 -14 -14
Wind_Speed
42 41 44 41 37 35 31 29 27 25 26 25 25 24 23 25 22 24 29 28 25 29 28 31 32 34 36 38 30 28 25 26 27 28 27 27 24 22
43 44 42 40 39 32 33 31 30 26 25 29 30 28 28 30 33 27 34 29 35 38 37 36 37 35 39 36 28 27 26 24 26 27 26 24 20 20
45 47 41 38 38 39 42 35 33 29 31 39 38 34 31 35 33 29 30 35 35 41 39 39 37 36 35 33 28 26 25 24 26 25 23 19 16 14
32 37 39 28 32 37 42 42 39 38 39 42 40 25 28 28 28 29 29 35 39 37 39 39 39 37 36 33 27 25 24 24 24 23 20 14 14 11
22 23 25 29 38 43 45 45 47 39 32 27 27 31 33 31 33 38 42 47 42 44 39 38 38 37 35 31 25 23 23 23 19 19 16 12 14 10
18 19 19 23 24 23 21 24 27 28 30 35 41 43 44 45 46 49 52 48 46 42 37 38 39 38 33 29 22 21 22 19 17 17 16 12 11 9
10 15 16 17 19 21 22 25 26 28 31 34 36 38 42 46 50 45 44 44 41 40 39 40 38 35 30 24 21 18 21 17 16 15 13 10 10 9
6 7 9 12 14 16 18 21 23 26 27 29 32 35 36 37 34 30 32 33 37 38 36 37 35 31 26 21 16 20 18 15 14 13 11 8 8 5
11 11 13 15 16 16 17 19 21 22 24 24 23 23 24 23 24 25 27 30 33 33 29 30 29 25 19 15 14 18 15 15 14 13 12 9 7 4
6 7 7 8 10 12 13 14 17 18 18 20 21 22 22 21 22 20 21 22 23 24 20 21 24 21 20 19 19 17 16 17 14 11 14 12 9 7
6 8 9 11 13 13 14 16 17 20 19 19 21 21 21 23 20 19 22 21 21 23 24 23 21 20 20 21 20 19 19 15 14 13 18 14 10 9
7 9 12 11 11 13 14 17 20 21 23 22 23 24 24 25 25 25 23 20 23 25 25 25 22 22 21 25 23 22 20 18 18 17 21 19 16 14
8 9 11 13 14 16 17 18 18 22 23 26 25 24 25 25 27 28 26 24 27 30 28 26 28 26 23 9 16 19 19 19 18 19 23 22 22 17
10 11 12 15 16 15 16 17 18 21 23 25 27 27 27 27 27 28 28 29 30 31 28 24 25 24 24 25 20 15 14 16 15 19 24 21 26 20
14 16 17 18 20 19 19 18 19 21 21 22 25 27 26 26 25 28 30 29 30 28 28 25 25 26 24 24 23 18 12 15 15 20 23 19 25 25
16 16 18 20 20 22 22 21 21 21 21 22 23 23 24 24 25 25 27 26 29 30 29 25 23 25 25 23 21 19 15 12 16 21 23 21 22 24
20 20 20 21 21 21 21 22 21 22 20 20 21 22 23 24 25 25 27 28 31 31 31 29 27 25 23 23 21 19 18 18 16 22 25 27 22 25
19 19 19 20 20 21 22 22 22 21 20 20 21 21 22 23 24 24 25 28 29 32 32 31 28 25 24 24 23 19 18 19 20 19 24 27 29 25
18 19 20 20 19 19 20 21 22 21 21 21 22 22 22 22 23 24 25 27 30 33 33 32 29 28 29 28 24 21 20 20 19 20 24 26 30 32
18 20 21 21 20 20 20 20 21 22 21 22 22 22 23 21 23 25 25 26 28 32 34 32 29 31 32 31 24 22 24 21 23 20 24 24 22 23
20 21 22 22 22 21 20 20 21 23 22 22 21 23 22 22 22 24 24 24 26 29 32 33 32 30 30 25 23 20 21 21 21 22 21 23 22 23
22 22 23 22 22 22 21 21 22 22 23 22 22 23 21 20 22 21 23 23 26 28 29 31 29 27 28 28 23 19 20 23 23 22 19 20 23 21
22 22 23 23 23 23 21 22 22 23 23 23 22 22 22 21 21 20 21 22 23 25 27 29 26 25 28 29 26 21 21 26 25 25 23 22 17 17
Wind_Direction
251 248 234 240 241 236 239 248 250 258 262 265 271 278 279 281 267 263 273 290 295 300 300 291 288 288 286 274 271 280 287 294 298 299 301 303 303 299
249 237 238 237 234 233 237 237 241 252 267 266 274 278 281 275 274 272 290 287 298 298 293 293 290 286 287 271 265 276 284 293 295 297 300 301 297 295
242 235 233 235 234 239 240 236 244 246 264 275 275 271 274 273 269 278 281 294 292 298 289 286 286 282 276 267 266 273 285 289 292 293 294 295 288 294
228 237 244 241 251 242 247 247 248 254 262 265 265 276 280 274 276 286 284 293 299 294 290 281 276 274 267 261 262 272 282 287 289 290 289 284 278 277
233 241 251 254 254 251 249 254 259 261 258 262 274 275 276 272 277 281 285 292 290 290 290 279 268 267 258 256 262 273 281 283 282 283 294 267 273 267
254 254 246 245 247 257 256 254 252 261 264 271 276 277 278 277 281 288 286 286 285 282 281 275 264 260 252 252 260 274 280 276 278 281 285 252 270 271
249 256 252 260 264 262 265 269 268 268 269 271 274 275 274 277 280 286 289 287 280 276 274 263 257 252 245 251 261 271 271 269 272 281 272 255 252 283
261 258 251 247 250 253 259 258 260 263 269 270 271 269 274 283 288 290 289 281 276 277 271 259 246 239 237 240 254 265 261 263 268 274 248 244 250 275
238 248 258 265 268 267 266 268 269 271 270 275 279 284 286 286 291 289 285 282 283 281 276 250 237 235 236 237 239 262 258 263 265 261 228 224 235 209
257 264 272 272 273 277 280 275 270 272 277 278 277 284 286 286 293 285 286 283 282 273 258 236 225 223 233 238 245 241 251 247 251 250 215 210 209 193
272 274 280 283 283 285 285 286 287 280 281 283 285 286 287 284 287 294 290 273 262 251 235 228 229 225 232 237 245 250 249 248 251 237 213 201 195 182
292 294 290 289 296 291 293 289 292 295 292 287 284 282 284 283 284 284 280 260 252 243 242 238 241 237 235 233 234 238 239 246 243 229 200 185 183 183
320 311 303 306 302 302 299 295 295 291 289 288 286 283 279 277 277 275 268 254 252 250 253 244 245 237 228 235 229 236 241 243 239 217 198 187 184 191
318 315 313 313 314 314 311 311 302 295 294 293 290 289 285 282 280 271 257 250 249 251 253 246 249 247 238 235 236 234 230 230 218 201 198 193 190 195
324 324 321 315 312 309 305 301 297 294 290 289 288 290 290 288 281 279 268 261 256 248 244 246 251 253 238 235 232 228 227 227 215 205 199 199 194 199
324 324 323 319 315 312 307 304 302 299 298 298 298 295 292 290 289 284 272 266 268 255 254 241 237 245 240 232 226 222 219 216 219 208 200 200 194 195
324 320 316 313 310 308 308 306 304 305 302 298 291 295 294 291 287 283 275 275 258 256 253 243 241 246 242 233 221 219 225 223 217 207 204 198 196 190
316 315 313 312 312 310 309 307 308 307 308 305 298 295 295 294 293 287 280 269 256 255 246 245 242 234 226 222 222 223 229 218 213 206 202 202 198 194
308 309 309 306 305 306 307 309 308 305 305 294 295 295 294 292 293 289 285 275 262 252 250 245 241 233 222 217 219 220 229 218 207 204 203 205 206 207
303 306 308 308 306 307 307 309 310 310 307 308 303 298 294 290 291 287 283 279 271 255 248 245 239 231 225 225 216 218 226 215 208 205 202 201 199 204
304 304 304 304 302 303 304 306 310 312 313 308 300 298 292 291 286 287 283 282 275 264 254 248 240 233 229 227 219 219 217 205 204 207 203 201 200 200
298 297 298 300 299 299 302 305 306 311 313 309 306 301 296 291 284 281 280 276 271 266 261 252 241 227 219 215 209 209 205 201 196 196 198 202 199 200
296 295 297 300 302 301 300 302 305 307 312 311 305 303 296 292 288 281 279 275 268 258 252 244 229 219 218 210 202 205 204 198 192 190 191 198 202 204
Height
1473 1480 1483 1488 1491 1493 1497 1499 1504 1504 1505 1507 1509 1510 1511 1511 1511 1513 1513 1512 1514 1513 1511 1511 1508 1506 1505 1502 1501 1502 1499 1497 1494 1491 1489 1486 1484 1481
1469 1472 1475 1477 1482 1485 1489 1491 1494 1497 1497 1502 1504 1505 1505 1506 1507 1506 1505 1507 1506 1505 1504 1502 1501 1499 1497 1495 1493 1493 1493 1490 1488 1487 1485 1482 1479 1477
1460 1460 1464 1469 1474 1478 1480 1481 1485 1488 1489 1493 1495 1496 1497 1498 1498 1497 1496 1497 1497 1496 1494 1493 1492 1491 1489 1489 1489 1487 1486 1484 1484 1480 1479 1477 1474 1473
1454 1457 1460 1464 1468 1470 1472 1474 1478 1482 1485 1485 1486 1487 1489 1490 1490 1488 1488 1487 1486 1486 1485 1483 1482 1482 1481 1480 1481 1482 1479 1479 1478 1475 1473 1472 1471 1470
1452 1456 1458 1459 1461 1463 1464 1468 1471 1475 1477 1478 1477 1478 1480 1481 1479 1478 1477 1477 1476 1476 1475 1474 1473 1473 1473 1473 1475 1476 1476 1473 1472 1472 1469 1469 1468 1466
1446 1449 1450 1453 1455 1457 1460 1461 1465 1467 1469 1469 1469 1468 1469 1469 1468 1467 1464 1464 1464 1465 1465 1464 1464 1464 1465 1467 1467 1469 1470 1470 1469 1466 1466 1463 1465 1463
1443 1445 1447 1450 1452 1453 1455 1456 1457 1459 1460 1460 1459 1459 1457 1458 1458 1458 1455 1452 1452 1453 1452 1453 1454 1455 1457 1459 1463 1462 1465 1465 1464 1464 1464 1461 1461 1460
1438 1441 1443 1446 1448 1448 1449 1450 1451 1452 1452 1452 1451 1450 1450 1449 1449 1449 1448 1445 1442 1444 1444 1443 1444 1446 1449 1451 1453 1457 1459 1459 1459 1460 1460 1458 1460 1458
1437 1439 1441 1442 1444 1444 1444 1445 1447 1448 1448 1448 1447 1447 1446 1446 1443 1442 1442 1439 1438 1435 1437 1436 1438 1440 1442 1444 1444 1449 1451 1454 1455 1455 1455 1456 1457 1458
1436 1437 1439 1440 1441 1440 1440 1440 1443 1444 1444 1444 1442 1443 1442 1441 1438 1435 1434 1433 1432 1433 1433 1433 1434 1433 1438 1440 1440 1438 1442 1445 1450 1449 1451 1454 1455 1455
1435 1435 1436 1436 1437 1436 1437 1437 1438 1438 1437 1438 1438 1434 1435 1436 1435 1431 1429 1430 1428 1430 1431 1430 1431 1431 1433 1434 1434 1436 1436 1438 1440 1442 1446 1450 1453 1454
1432 1431 1432 1434 1433 1432 1432 1434 1431 1431 1432 1430 1429 1430 1430 1427 1427 1429 1426 1423 1423 1426 1426 1427 1427 1428 1427 1426 1427 1430 1432 1433 1435 1437 1440 1444 1449 1452
1428 1428 1429 1429 1428 1427 1425 1426 1423 1425 1423 1424 1423 1422 1424 1421 1421 1422 1419 1417 1418 1418 1419 1419 1419 1421 1421 1421 1421 1424 1426 1429 1430 1432 1436 1439 1443 1448
1426 1425 1425 1424 1423 1422 1421 1419 1418 1418 1418 1419 1415 1414 1416 1415 1414 1414 1413 1412 1413 1414 1414 1413 1413 1415 1416 1417 1418 1420 1422 1427 1426 1429 1433 1436 1440 1445
1420 1420 1419 1419 1417 1416 1416 1414 1413 1413 1412 1410 1409 1408 1408 1408 1406 1406 1406 1406 1407 1407 1407 1408 1407 1408 1411 1412 1412 1415 1418 1422 1425 1428 1430 1433 1436 1441
1417 1416 1415 1415 1413 1412 1409 1408 1407 1406 1405 1404 1402 1400 1399 1398 1398 1398 1399 1399 1400 1401 1402 1403 1403 1403 1404 1406 1408 1410 1414 1419 1422 1426 1429 1432 1434 1438
1413 1412 1411 1410 1409 1407 1404 1402 1401 1400 1399 1396 1394 1393 1392 1391 1390 1391 1390 1391 1391 1392 1395 1397 1398 1400 1400 1404 1404 1407 1411 1415 1418 1421 1426 1429 1432 1435
1410 1409 1408 1406 1404 1402 1399 1397 1396 1393 1391 1389 1387 1386 1385 1384 1383 1382 1383 1383 1384 1384 1387 1390 1392 1394 1397 1399 1401 1404 1407 1410 1414 1417 1420 1425 1430 1433
1407 1405 1403 1401 1399 1397 1394 1392 1389 1386 1384 1383 1380 1379 1378 1376 1376 1374 1375 1375 1376 1378 1379 1383 1386 1388 1391 1392 1396 1399 1403 1406 1410 1413 1417 1421 1426 1431
1403 1400 1397 1395 1392 1390 1388 1385 1383 1380 1377 1375 1373 1372 1371 1369 1368 1367 1367 1368 1369 1371 1373 1376 1378 1382 1384 1386 1390 1395 1399 1402 1406 1410 1413 1417 1422 1426
1396 1393 1391 1389 1386 1384 1382 1379 1376 1373 1371 1369 1367 1365 1364 1362 1361 1360 1360 1361 1362 1364 1365 1367 1371 1376 1379 1382 1387 1391 1394 1398 1403 1406 1410 1415 1418 1421
1389 1386 1384 1382 1380 1378 1375 1372 1370 1368 1365 1362 1360 1359 1356 1355 1353 1353 1353 1354 1355 1357 1358 1362 1365 1370 1373 1376 1382 1388 1391 1394 1399 1403 1408 1412 1414 1416
1381 1379 1377 1375 1373 1371 1368 1366 1364 1362 1359 1356 1353 1352 1350 1348 1347 1346 1346 1347 1349 1351 1353 1355 1359 1363 1367 1372 1378 1383 1387 1391 1394 1399 1404 1408 1412 1416